Watford City, ND

6:14 PM CST on January 19, 2017 (GMT -0600)
Watford City

Weather History for KS25 - September, 2013

Change the Weather History Date:

Wednesday, September 18, 2013

  Actual Average (KISN) Record (KISN)
Temperature  
Mean Temperature 67 °F -  
Max Temperature 77 °F 67 °F 93 °F (2004)
Min Temperature 57 °F 42 °F 23 °F (2010)
Cooling Degree Days 2    
Growing Degree Days 17 (Base 50)    
Moisture  
Dew Point 58 °F    
Average Humidity 78    
Maximum Humidity 100    
Minimum Humidity 44    
Precipitation  
Precipitation 0.12 in - - ()
Sea Level Pressure  
Sea Level Pressure 29.61 in    
Wind  
Wind Speed 8 mph (West)    
Max Wind Speed 29 mph    
Max Gust Speed 36 mph    
Visibility 10 miles    
Events Rain    
Averages and records for this station are not official NWS values.
T = Trace of Precipitation, MM = Missing Value Source: NWS Daily Summary

Daily Weather History Graph

Daily Weather History Graph

Search for Another Location

Airport or City:

Trip Planner

Search our weather history database for the weather conditions in past years. The results will help you decide how hot, cold, wet, or windy it might be!

Date:

Astronomy

Sep. 18, 2013 Rise Set
Actual Time 7:34 AM CDT 7:58 PM CDT
Civil Twilight 7:03 AM CDT 8:29 PM CDT
Nautical Twilight 6:27 AM CDT 9:05 PM CDT
Astronomical Twilight 5:48 AM CDT 9:43 PM CDT
Moon 7:21 PM CDT (9/18) 6:38 AM CDT (9/18)
Length of Visible Light 13h 25m
Length of Day
12h 23m
Waxing Gibbous, 99% of the Moon is Illuminated
Sep 18
Waxing Gibbous
Sep 19
Full
Sep 26
Last Quarter
Oct 4
New
Oct 11
First Quarter

Hourly Weather History & Observations

Time (CDT) Temp. Dew Point Humidity Pressure Visibility Wind Dir Wind Speed Gust Speed Precip Events Conditions
12:15 AM 68.0 °F 55.4 °F 64% 29.67 in 10.0 mi SW 15.0 mph 21.9 mph N/A Rain Light Rain
12:35 AM 68.0 °F 55.4 °F 64% 29.66 in 10.0 mi SW 19.6 mph 28.8 mph N/A   Clear
12:55 AM 66.2 °F 57.2 °F 73% 29.64 in 10.0 mi SW 16.1 mph 20.7 mph N/A Rain Light Rain
1:15 AM 64.4 °F 59.0 °F 83% 29.66 in 10.0 mi SSW 11.5 mph - N/A Rain Light Rain
1:35 AM 62.6 °F 59.0 °F 88% 29.66 in 10.0 mi SSW 10.4 mph 20.7 mph N/A Rain Light Rain
1:55 AM 62.6 °F 57.2 °F 82% 29.65 in 10.0 mi SSW 10.4 mph - N/A   Scattered Clouds
2:15 AM 62.6 °F 57.2 °F 82% 29.65 in 9.0 mi WSW 9.2 mph - N/A Rain Light Rain
2:35 AM 62.6 °F 59.0 °F 88% 29.64 in 9.0 mi NW 4.6 mph - 0.02 in Rain Light Rain
2:55 AM 60.8 °F 59.0 °F 94% 29.64 in 10.0 mi Calm Calm - 0.02 in   Mostly Cloudy
3:15 AM 60.8 °F 59.0 °F 94% 29.63 in 10.0 mi ENE 5.8 mph - N/A   Mostly Cloudy
3:35 AM 60.8 °F 59.0 °F 94% 29.62 in 9.0 mi ESE 5.8 mph - N/A Rain Light Rain
3:55 AM 60.8 °F 59.0 °F 94% 29.61 in 10.0 mi Calm Calm - N/A   Mostly Cloudy
4:15 AM 59.0 °F 59.0 °F 100% 29.60 in 10.0 mi East 4.6 mph - N/A   Mostly Cloudy
4:35 AM 59.0 °F 57.2 °F 94% 29.60 in 10.0 mi ESE 6.9 mph - N/A   Partly Cloudy
4:55 AM 59.0 °F 59.0 °F 100% 29.59 in 10.0 mi ESE 9.2 mph - N/A   Clear
5:15 AM 59.0 °F 59.0 °F 100% 29.59 in 10.0 mi ENE 4.6 mph - N/A   Clear
5:35 AM 59.0 °F 59.0 °F 100% 29.58 in 10.0 mi ENE 4.6 mph - N/A   Clear
5:55 AM 59.0 °F 57.2 °F 94% 29.57 in 10.0 mi North 4.6 mph - N/A   Clear
6:15 AM 59.0 °F 57.2 °F 94% 29.57 in 10.0 mi Calm Calm - N/A   Clear
6:35 AM 59.0 °F 57.2 °F 94% 29.56 in 10.0 mi SE 5.8 mph - N/A   Clear
6:55 AM 60.8 °F 57.2 °F 88% 29.57 in 10.0 mi East 3.5 mph - N/A   Scattered Clouds
7:15 AM 59.0 °F 57.2 °F 94% 29.57 in 10.0 mi Calm Calm - N/A   Mostly Cloudy
7:35 AM 60.8 °F 57.2 °F 88% 29.57 in 10.0 mi NW 5.8 mph - N/A   Scattered Clouds
7:55 AM 59.0 °F 57.2 °F 94% 29.58 in 10.0 mi NE 4.6 mph - N/A Rain Light Rain
8:15 AM 59.0 °F 59.0 °F 100% 29.59 in 10.0 mi NNW 5.8 mph - N/A   Mostly Cloudy
8:35 AM 59.0 °F 59.0 °F 100% 29.60 in 10.0 mi Calm Calm - N/A   Mostly Cloudy
8:55 AM 59.0 °F 59.0 °F 100% 29.61 in 10.0 mi Calm Calm - N/A   Overcast
9:15 AM 60.8 °F 59.0 °F 94% 29.62 in 9.0 mi Calm Calm - N/A Rain Light Rain
9:35 AM 59.0 °F 59.0 °F 100% 29.62 in 4.0 mi West 4.6 mph - 0.02 in Rain Light Rain
9:55 AM 59.0 °F 59.0 °F 100% 29.61 in 1.5 mi Calm Calm - 0.10 in Rain Heavy Rain
10:15 AM 59.0 °F 59.0 °F 100% 29.60 in 8.0 mi NNE 3.5 mph - N/A Rain Light Rain
10:35 AM 60.8 °F 60.8 °F 100% 29.60 in 10.0 mi NW 3.5 mph - N/A   Mostly Cloudy
10:55 AM 60.8 °F 60.8 °F 100% 29.59 in 10.0 mi NE 3.5 mph - N/A   Mostly Cloudy
11:15 AM 62.6 °F 62.6 °F 100% 29.59 in 10.0 mi East 6.9 mph - N/A   Mostly Cloudy
11:35 AM 62.6 °F 62.6 °F 100% 29.58 in 10.0 mi East 6.9 mph - N/A   Scattered Clouds
11:55 AM 66.2 °F 64.4 °F 94% 29.57 in 10.0 mi East 8.1 mph - N/A   Clear
12:15 PM 68.0 °F 60.8 °F 78% 29.58 in 10.0 mi NE 3.5 mph - N/A   Clear
12:55 PM 71.6 °F 60.8 °F 69% 29.57 in 10.0 mi SSE 3.5 mph - N/A   Clear
1:15 PM 71.6 °F 59.0 °F 64% 29.57 in 10.0 mi Calm Calm - N/A   Clear
1:35 PM 73.4 °F 57.2 °F 57% 29.57 in 10.0 mi West 3.5 mph - N/A   Clear
1:55 PM 73.4 °F 59.0 °F 61% 29.57 in 10.0 mi SW 4.6 mph - N/A   Clear
2:15 PM 73.4 °F 57.2 °F 57% 29.57 in 10.0 mi Calm Calm - N/A   Partly Cloudy
2:35 PM 73.4 °F 57.2 °F 57% 29.57 in 10.0 mi North 3.5 mph - N/A   Mostly Cloudy
2:55 PM 77.0 °F 59.0 °F 54% 29.57 in 10.0 mi SW 6.9 mph - N/A   Mostly Cloudy
3:15 PM 75.2 °F 57.2 °F 53% 29.56 in 10.0 mi SSW 3.5 mph - N/A   Partly Cloudy
3:35 PM 75.2 °F 57.2 °F 53% 29.57 in 10.0 mi West 6.9 mph - N/A   Scattered Clouds
3:55 PM 75.2 °F 55.4 °F 50% 29.57 in 10.0 mi West 8.1 mph - N/A   Partly Cloudy
4:15 PM 77.0 °F 57.2 °F 50% 29.58 in 10.0 mi West 9.2 mph - N/A   Mostly Cloudy
4:35 PM 77.0 °F 55.4 °F 47% 29.57 in 10.0 mi West 9.2 mph - N/A   Mostly Cloudy
4:55 PM 77.0 °F 55.4 °F 47% 29.58 in 10.0 mi WNW 8.1 mph - N/A   Partly Cloudy
5:15 PM 77.0 °F 55.4 °F 47% 29.58 in 10.0 mi West 9.2 mph - N/A   Clear
5:35 PM 77.0 °F 53.6 °F 44% 29.57 in 10.0 mi West 5.8 mph - N/A   Clear
5:55 PM 77.0 °F 55.4 °F 47% 29.57 in 10.0 mi West 6.9 mph - N/A   Partly Cloudy
6:15 PM 77.0 °F 55.4 °F 47% 29.58 in 10.0 mi West 8.1 mph - N/A   Clear
6:35 PM 75.2 °F 55.4 °F 50% 29.58 in 10.0 mi WNW 3.5 mph - N/A   Clear
6:55 PM 75.2 °F 55.4 °F 50% 29.58 in 10.0 mi West 3.5 mph - N/A   Clear
7:15 PM 73.4 °F 57.2 °F 57% 29.58 in 10.0 mi Calm Calm - N/A   Partly Cloudy
7:35 PM 71.6 °F 57.2 °F 60% 29.58 in 10.0 mi South 5.8 mph - N/A   Mostly Cloudy
7:55 PM 71.6 °F 55.4 °F 57% 29.59 in 10.0 mi SW 10.4 mph 16.1 mph N/A   Mostly Cloudy
8:15 PM 69.8 °F 55.4 °F 60% 29.59 in 10.0 mi West 10.4 mph - N/A   Partly Cloudy
8:35 PM 69.8 °F 55.4 °F 60% 29.62 in 10.0 mi West 28.8 mph 35.7 mph N/A   Mostly Cloudy
8:55 PM 66.2 °F 55.4 °F 68% 29.63 in 10.0 mi West 21.9 mph 28.8 mph N/A   Partly Cloudy
9:15 PM 64.4 °F 57.2 °F 77% 29.65 in 10.0 mi WNW 17.3 mph 27.6 mph N/A   Clear
9:35 PM 62.6 °F 55.4 °F 77% 29.67 in 10.0 mi WNW 19.6 mph 26.5 mph N/A   Clear
9:55 PM 60.8 °F 55.4 °F 82% 29.69 in 10.0 mi WNW 12.7 mph 21.9 mph N/A   Clear
10:15 PM 59.0 °F 55.4 °F 88% 29.71 in 10.0 mi WNW 10.4 mph - N/A   Clear
10:35 PM 59.0 °F 55.4 °F 88% 29.72 in 10.0 mi West 15.0 mph 18.4 mph N/A   Partly Cloudy
10:55 PM 59.0 °F 55.4 °F 88% 29.73 in 10.0 mi West 16.1 mph - N/A   Clear
11:15 PM 59.0 °F 55.4 °F 88% 29.72 in 10.0 mi West 13.8 mph 24.2 mph N/A   Clear
11:35 PM 57.2 °F 55.4 °F 94% 29.74 in 10.0 mi North 4.6 mph - N/A   Clear
11:55 PM 57.2 °F 55.4 °F 94% 29.74 in 10.0 mi North 4.6 mph - N/A   Clear